Regional Weather Roundup
Issued by NWS

Home | Current Version | Previous Version | Graphics & Text | Print | Product List | Glossary On
Versions: 1 2 3 4 5 6 7 8 9 10 11 12 13 14 15 16 17 18 19 20 21 22 23 24 25 26 27
000
ASUS45 KCYS 261310
RWRWY

WYOMING REGIONAL WEATHER ROUNDUP
NATIONAL WEATHER SERVICE CHEYENNE WY
700 AM MDT SUN MAR 26 2017

NOTE:  "FAIR" INDICATES FEW OR NO CLOUDS BELOW 12,000 FEET
WITH NO SIGNIFICANT WEATHER AND/OR OBSTRUCTIONS TO VISIBILITY.

WYZ001-261400-
YELLOWSTONE NATIONAL PARK

CITY           SKY/WX    TMP DP  RH WIND       PRES   REMARKS
LK YELLOWSTONE   N/A     19  18  95 W3        29.98F
W YELLOWSTONE  NOT AVBL

$$
WYZ002>013-054>058-071-098>099-261400-
NORTHERN WYOMING

CITY           SKY/WX    TMP DP  RH WIND       PRES   REMARKS
JACKSON        PTCLDY    25  25 100 CALM      29.99S
CODY           MOCLDY    35  24  64 SW8       29.95R WCI  29
GREYBULL       FAIR      32  29  88 W3        29.94R
WORLAND        FAIR      34  34 100 SW6       29.94R WCI  29
SHERIDAN       FAIR      32  31  96 CALM      29.94R
BUFFALO        FAIR      36  32  85 NW6       29.94R WCI  31
GILLETTE       CLOUDY    39  37  92 N8        29.92R WCI  33
HULETT         CLOUDY    37  36  93 NE8       29.91S WCI  31
NEWCASTLE      LGT RAIN  41  34  75 NW10G18   29.85R

$$
WYZ014>020-022>026-101>103-261400-
CENTRAL WYOMING

CITY           SKY/WX    TMP DP  RH WIND       PRES   REMARKS
BIG PINEY      FAIR      21  18  88 NW8       29.99R WCI  11
PINEDALE       FAIR      23  21  93 NW7       29.99R WCI  15
DUBOIS         FAIR      28  21  74 NW7       29.96R WCI  21
LANDER         CLOUDY    37  34  89 W7        29.94R WCI  32
RIVERTON       CLOUDY    36  35  96 W9        29.95R WCI  29
CASPER         CLOUDY    37  36  96 N6        29.93R WCI  32
DOUGLAS        LGT RAIN  35  34  96 NW13      29.91R WCI  26

$$
WYZ021-027>030-104>119-261400-
SOUTHERN WYOMING

CITY           SKY/WX    TMP DP  RH WIND       PRES   REMARKS
EVANSTON       FAIR      24  21  88 SW8       30.01R WCI  15
FORT BRIDGER   FAIR      29  27  92 W9        30.03S WCI  21
ROCK SPRINGS   FAIR      31  26  82 W10       29.99R WCI  22
DIXON          FLURRIES  34  31  91 W7        29.99R WCI  28
RAWLINS        CLOUDY    34  31  88 NW9       29.93R WCI  27
SARATOGA       CLOUDY    34  34 100 NW13G24   29.93R WCI  25
LARAMIE        LGT RAIN  34  33  96 CALM      29.87R
CHEYENNE       CLOUDY    38  34  85 N14       29.85R WCI  30
TORRINGTON     CLOUDY    43  34  70 NW9       29.83R
PINE BLUFFS    CLOUDY    41  37  87 N3        29.84R

$$




USA.gov is the U.S. government's official web portal to all federal, state and local government web resources and services.